Location: Unspecified
(58.9933°N, 5.6375°E)
Time: 01:53:49
(UTC+02:00)

Resurs 1-4 Rocket - Visible Passes

Search period start: 29 September 2016 00:00
Search period end: 09 October 2016 00:00
Orbit: 800 x 814 km, 98.4° (Epoch: 27 September)

Date Brightness Start Highest point End Pass type
(mag) Time Alt. Az. Time Alt. Az. Time Alt. Az.
29 Sep 4.4 02:54:24 10° NE 02:57:44 16° E 02:59:55 13° ESE visible
29 Sep 2.3 04:33:14 10° NNE 04:38:36 70° ESE 04:41:00 33° S visible
29 Sep 3.0 06:13:29 10° N 06:18:09 32° NW 06:22:05 14° WSW visible
30 Sep 4.7 02:31:10 10° ENE 02:32:43 11° ENE 02:34:17 10° E visible
30 Sep 2.8 04:08:45 10° NNE 04:13:56 49° E 04:16:03 32° SSE visible
30 Sep 2.6 05:48:47 10° N 05:53:48 43° WNW 05:57:06 20° WSW visible
01 Oct 3.4 03:44:20 10° NNE 03:49:11 34° E 03:51:05 27° SE visible
01 Oct 2.2 05:24:07 10° NNE 05:29:22 59° WNW 05:32:10 27° SW visible
02 Oct 3.9 03:20:04 10° NE 03:24:22 24° E 03:26:08 20° ESE visible
02 Oct 2.0 04:59:29 10° NNE 05:04:52 82° WNW 05:07:12 35° SSW visible
02 Oct 3.4 06:39:55 10° N 06:44:06 24° NW 06:48:16 10° W visible
03 Oct 4.3 02:56:01 10° NE 02:59:27 17° E 03:01:10 15° ESE visible
03 Oct 2.2 04:34:56 10° NNE 04:40:17 72° ESE 04:42:14 40° S visible
03 Oct 3.0 06:15:11 10° N 06:19:49 31° NW 06:23:19 16° WSW visible
04 Oct 4.7 02:32:39 10° ENE 02:34:27 12° ENE 02:36:12 10° E visible
04 Oct 2.8 04:10:25 10° NNE 04:15:38 50° E 04:17:17 37° SSE visible
04 Oct 2.6 05:50:28 10° N 05:55:27 42° WNW 05:58:21 23° WSW visible
05 Oct 3.4 03:46:00 10° NNE 03:50:54 35° E 03:52:19 30° SE visible
05 Oct 2.2 05:25:48 10° NNE 05:31:03 58° WNW 05:33:24 32° SW visible
05 Oct 3.7 07:06:27 10° N 07:09:59 18° NW 07:13:30 10° W visible
06 Oct 3.8 03:21:42 10° NE 03:26:04 25° E 03:27:22 23° ESE visible
06 Oct 2.0 05:01:11 10° NNE 05:06:32 80° WNW 05:08:26 42° SSW visible
06 Oct 3.4 06:41:38 10° N 06:45:46 23° NW 06:49:30 12° W visible
07 Oct 4.3 02:57:38 10° NE 03:01:10 18° E 03:02:24 16° E visible
07 Oct 2.2 04:36:36 10° NNE 04:41:58 74° ESE 04:43:28 48° S visible
07 Oct 3.0 06:16:52 10° N 06:21:28 31° NW 06:24:34 18° WSW visible
08 Oct 4.7 02:34:10 10° NE 02:36:10 12° ENE 02:37:26 11° E visible
08 Oct 2.7 04:12:05 10° NNE 04:17:19 52° E 04:18:31 43° SE visible
08 Oct 2.6 05:52:09 10° N 05:57:08 41° WNW 05:59:35 26° WSW visible
